Location: Castelnau
(43.5749°N, 0.7242°E)
Time: 14:33:44
(UTC+00:00)

Daily predictions for brighter satellites

Satellite Brightness Start Highest point End
(mag) Time Altitude Azimuth Time Altitude Azimuth Time Altitude Azimuth
GEOS 3 Rocket 3.9 19:35:04 10° SSE 19:40:22 76° SW 19:45:45 10° NW
USA 229 DEB 4.2 19:34:11 10° NNW 19:41:42 67° NE 19:49:57 10° SE
USA 229 4.2 19:34:14 10° NNW 19:41:45 66° NE 19:50:00 10° SE
Okean O Rocket 3.3 19:39:36 10° ESE 19:42:30 18° ENE 19:45:25 10° NNE
SL-24 R/B 4.1 19:38:03 10° NNE 19:42:35 73° ESE 19:46:51 10° S
CZ-4 R/B 1.2 19:39:11 10° SSE 19:42:45 60° ENE 19:46:20 10° N
ISS -2.8 19:40:09 10° SSW 19:43:02 27° SE 19:45:56 10° ENE
Cosmos 1447 Rocket 4.5 19:38:02 10° N 19:44:13 82° E 19:50:21 10° S
SJ-6B 4.4 19:41:47 10° SSW 19:44:57 32° W 19:48:07 10° NNW
CZ-4B R/B 3.8 19:41:19 10° SSE 19:45:16 76° ENE 19:49:19 10° N
CZ-4C R/B 2.1 19:44:45 10° S 19:48:21 35° ESE 19:52:44 10° NE
Meteor 2-3 Rocket 4.1 19:44:22 10° N 19:49:48 47° ENE 19:55:14 10° SSE
CSL-04 Rocket 3.9 19:45:51 10° S 19:51:22 79° WSW 19:56:51 10° NNW
Cosmos 1833 Rocket 2.7 19:45:52 10° SSW 19:51:27 87° ESE 19:57:07 10° NNE
CZ-4B DEB 4.3 19:46:27 10° SSE 19:51:54 69° ENE 19:57:24 10° N
ATLAS 2AS CENTAUR R/B 3.3 19:45:50 10° SW 19:52:46 66° NW 19:59:35 10° NNE
Cosmos 292 Rocket 4.3 19:48:12 10° N 19:52:46 44° ENE 19:57:17 10° SE
ARIANE 6 FM1 Upper Stage 4.2 19:49:21 10° WNW 19:52:50 29° WSW 19:56:18 10° S
CZ-4B R/B 3.6 19:48:57 10° SE 19:54:25 52° ENE 19:59:53 10° N
Okean-O 3.9 19:53:03 10° ESE 19:56:33 24° ENE 20:00:04 10° NNE
Cosmos 1455 Rocket 4.2 19:56:44 10° SE 20:00:21 25° E 20:03:58 10° NNE
Gbstr 26 Del rocket 4.3 19:56:53 10° NW 20:01:57 41° NNE 20:06:08 10° E
Spot 2 Rocket 4.3 19:57:48 11° SE 20:02:10 34° ENE 20:06:40 10° N
MetOp-B 4.3 19:57:05 10° SSE 20:02:20 62° ENE 20:07:38 10° N
SL-4 R/B 1.8 19:59:11 10° WNW 20:03:00 86° NNE 20:06:19 14° ESE
Cosmos 2173 Rocket 4.0 20:01:08 10° S 20:07:08 62° E 20:13:14 10° NNE
Okean 1 Rocket 3.1 20:03:00 10° S 20:07:17 60° E 20:11:39 10° NNE
ADEOS 3.7 20:03:01 10° SSE 20:08:08 61° ENE 20:13:17 10° N
Cosmos 332 Rocket 3.9 20:03:34 10° NNW 20:08:20 75° WSW 20:13:03 10° SSE
PAYLOAD B 4.3 20:09:35 10° SSE 20:15:05 88° WSW 20:20:39 10° NNW
Helios 1A Rocket 2.4 20:13:37 10° N 20:16:46 72° WNW 20:19:54 10° SSW
ERS-1 Rocket 3.1 20:17:58 10° S 20:22:57 75° WSW 20:27:59 10° NNW
SKYMED 3 4.3 20:22:31 10° NNE 20:26:29 88° ESE 20:30:26 10° SSW
SJ 16-02 4.0 20:26:17 10° WNW 20:28:35 14° W 20:30:53 10° SW
ATLAS 3B R/B 2.9 20:21:21 10° NW 20:29:10 87° NE 20:34:57 18° SE
DELTA 2 R/B (1) 4.2 20:24:52 10° SW 20:29:50 34° SSE 20:33:42 15° E
Cosmos 2082 Rocket 2.8 20:24:41 10° S 20:29:50 36° ESE 20:35:00 10° NE
Cosmos 1452 Rocket 3.5 20:24:43 10° S 20:29:52 64° ESE 20:35:02 10° NNE
DEBRIS 3.2 20:27:39 10° W 20:30:09 63° NNW 20:36:15 10° ENE
Cosmos 1741 Rocket 4.1 20:27:45 10° NNW 20:33:03 67° ENE 20:36:43 20° SSE
Sich 1 Rocket 3.6 20:30:32 10° SSW 20:34:52 78° W 20:39:16 10° N
SL-08 R/B 3.3 20:30:03 10° NNE 20:34:55 84° ESE 20:39:41 10° SSW
Cosmos 1802 Rocket 3.9 20:30:35 10° S 20:36:45 74° E 20:42:54 10° NNE
Cosmos 1331 Rocket 4.1 20:31:30 10° SSW 20:36:45 79° WNW 20:42:00 10° NNE
Cosmos 968 Rocket 3.8 20:33:19 10° NNW 20:38:33 67° WSW 20:42:54 15° S
CZ-4B R/B 4.5 20:36:55 19° ESE 20:39:13 29° ENE 20:43:18 10° N
YAOGAN 11 4.1 20:36:56 10° NNE 20:41:19 65° ESE 20:45:19 13° S
Cosmos 1302 Rocket 4.1 20:41:09 10° S 20:46:09 53° ESE 20:51:11 10° NNE
MOS 1-B 4.3 20:44:42 19° SSE 20:49:01 82° ENE 20:54:50 10° NNW
CZ-2C R/B 4.2 20:49:47 14° ENE 20:49:47 14° ENE 20:51:03 10° NNE
Terra 2.8 20:46:48 10° S 20:51:16 43° W 20:55:45 10° NNW
Cosmos 1697 Rocket 3.4 20:46:13 10° NW 20:51:36 48° WSW 20:56:07 14° S
NOSS 3-3 (A) 3.9 20:47:33 10° S 20:52:14 42° ESE 20:57:39 10° NE
Milstar 3 4.1 20:47:24 10° WSW 20:53:09 26° S 20:56:26 21° SSE
Cosmos 1459 Rocket 4.4 20:47:09 10° SSW 20:53:21 63° W 20:59:29 10° N
Meteor 2-12 Rocket 4.5 20:47:56 10° N 20:53:58 64° E 20:57:38 25° SSE
COSMOS 2406 4.1 20:54:43 26° SE 20:55:59 28° ESE 21:00:48 10° NE
SL-16 R/B 3.8 20:53:10 10° N 20:57:32 22° NE 21:00:34 15° E
Cosmos 2228 2.8 20:58:22 28° S 21:00:27 70° E 21:04:33 10° NNE
USA 186 1.5 21:00:42 54° SW 21:01:03 63° W 21:03:44 10° NNW
USA 306 1.9 20:58:03 10° SW 21:00:59 59° SSW 21:00:59 59° SSW
Cosmos 1782 2.4 21:00:48 29° S 21:02:29 86° WNW 21:06:00 10° N
Cosmos 1743 2.2 20:59:33 10° NNW 21:02:33 68° W 21:03:16 46° SSW
SPOT 3 Rocket 3.6 21:02:10 30° SE 21:04:35 61° ENE 21:09:40 10° N
Cosmos 1850 Rocket 4.3 21:01:25 10° NNW 21:06:30 60° WSW 21:09:34 23° S
Cosmos 44 Rocket 4.2 21:04:00 10° SW 21:08:56 53° NW 21:14:00 10° NNE
Cosmos 2333 Rocket 3.7 21:08:20 10° N 21:13:01 25° NE 21:15:41 18° E
Cosmos 1607 3.9 21:07:22 10° SSW 21:13:31 89° WNW 21:19:48 10° NE
CZ-4B R/B 2.3 21:13:31 62° ESE 21:13:50 67° ENE 21:17:12 10° N
Cosmos 1626 Rocket 4.0 21:09:41 10° N 21:13:51 43° ENE 21:14:41 38° ESE
Okean O Rocket 2.4 21:15:58 22° SSW 21:18:20 45° W 21:22:29 10° NNW
Cosmos 2233 Rocket 4.0 21:14:27 16° S 21:19:37 84° W 21:25:50 10° N
ISS -2.7 21:16:30 10° W 21:19:43 45° NNW 21:22:58 10° NE
Cosmos 1980 Rocket 2.4 21:14:40 10° NNW 21:20:19 65° WSW 21:23:05 30° S
NOSS 3-3 (C) 3.6 21:17:31 22° S 21:20:41 58° ESE 21:26:30 10° NE
Cosmos 1933 4.0 21:27:23 35° ENE 21:27:23 35° ENE 21:30:21 10° NNE
USA 305 3.1 21:23:04 10° NW 21:26:59 45° NNE 21:27:30 41° NE
IRS-1C Rocket 4.0 21:25:22 40° SSE 21:27:19 77° ENE 21:32:36 10° N
USA 245 4.4 21:25:10 31° S 21:28:08 77° WSW 21:34:01 10° NNW
Geosat 4.2 21:27:31 10° NE 21:32:21 47° ESE 21:32:49 45° SE
Okean-O 4.0 21:30:19 20° SSW 21:32:39 33° W 21:36:37 10° NNW
Tsikada Rocket 4.1 21:27:07 10° NNW 21:33:16 72° W 21:36:32 29° S
BREEZE-M DEB (TANK) 4.1 21:29:54 10° WNW 21:33:30 56° SSW 21:36:33 34° SSE
Ariane Rocket 2.9 21:33:20 45° SSE 21:34:56 88° ENE 21:40:02 10° NNW
Cosmos 2098 Rocket 4.1 21:34:55 35° E 21:35:02 35° E 21:39:19 10° NNE
CZ-4C R/B 3.7 21:32:43 10° W 21:36:32 30° NW 21:41:15 10° NNE
SL-4 R/B 4.0 21:37:29 10° W 21:39:46 16° SW 21:39:46 16° SW
Cosmos 2360 Rocket 3.6 21:41:38 10° N 21:46:23 26° NE 21:48:24 22° E
Cosmos 2084 Rocket 3.2 21:42:36 10° NW 21:46:50 81° NE 21:47:04 76° E
Cosmos 1437 Rocket 3.1 21:48:46 48° NNE 21:48:46 48° NNE 21:51:29 10° NNE
Gbstr 26 Del rocket 3.1 21:43:51 10° WNW 21:48:32 59° SW 21:48:34 59° SW
Cosmos 1544 Rocket 3.5 21:49:36 62° SSW 21:50:17 80° W 21:54:39 10° N
BREEZE-M DEB (TANK) 4.4 21:50:50 10° WSW 21:52:51 22° WSW 21:52:51 22° WSW
USA 234 3.6 21:51:53 10° ENE 21:57:36 40° ESE 21:57:36 40° ESE
Cosmos 2237 4.3 21:54:21 10° NNW 22:00:04 69° WSW 22:01:26 51° S
Cosmos 2219 Rocket 3.8 21:58:42 10° N 22:03:10 23° NE 22:05:14 19° E
BREEZE-M DEB (TANK) 4.2 22:03:43 10° WNW 22:04:52 17° NW 22:04:52 17° NW
Cosmos 1758 Rocket 4.0 22:04:09 10° NNW 22:08:25 52° W 22:08:49 50° WSW
Cosmos 2369 4.3 22:08:21 10° NW 22:13:47 46° WSW 22:15:01 40° SW
Cosmos 2082 Rocket 3.6 22:08:37 10° WSW 22:13:51 36° NW 22:19:08 10° N
Cosmos 2322 Rocket 2.8 22:09:26 10° NNW 22:14:51 44° ENE 22:15:56 40° E
DELTA 2 R/B (1) 4.0 22:10:17 10° WSW 22:14:27 46° SW 22:14:27 46° SW
Cosmos 1464 Rocket 3.8 22:18:24 58° S 22:19:41 83° E 22:25:52 10° N
Cosmos 1375 Rocket 4.5 22:18:44 37° SSW 22:21:33 89° WNW 22:28:09 10° NNE
Cosmos 1486 Rocket 4.1 22:18:30 10° NNW 22:23:43 62° ENE 22:24:02 61° E
Cosmos 1825 Rocket 3.9 22:19:59 10° N 22:23:40 55° NE 22:23:40 55° NE
ALOS 2 4.3 22:27:20 23° ENE 22:27:20 23° ENE 22:30:32 10° NNE
ARIANE 5 R/B 4.1 22:27:36 27° ENE 22:27:36 27° ENE 22:31:03 10° N
Meteor 1-5 Rocket 4.1 22:21:47 10° N 22:27:31 86° E 22:28:14 70° SSE
Cosmos 2151 4.1 22:26:11 10° NNW 22:29:47 35° W 22:29:47 35° W
Cosmos 1602 Rocket 4.2 22:29:40 10° NNW 22:33:31 47° WNW 22:33:31 47° WNW
Cosmos 2278 3.5 22:29:28 10° NNW 22:35:14 86° ENE 22:35:41 76° SE
COSMOS 2406 4.1 22:36:39 22° WSW 22:40:00 46° WNW 22:45:32 10° NNE
SL-16 R/B 2.2 22:36:29 10° NNW 22:42:07 66° WSW 22:42:24 65° SW
Cosmos 1092 Rocket 4.1 22:38:59 10° N 22:45:02 56° ENE 22:45:38 53° E
Helios 1A 3.8 22:41:21 10° N 22:44:22 46° NNW 22:44:22 46° NNW
Cosmos-2242 4.2 22:51:19 35° NE 22:51:19 35° NE 22:53:54 10° NNE
CZ-2C R/B 4.5 22:46:56 10° NNE 22:50:07 43° NE 22:50:07 43° NE
Cosmos 1428 Rocket 4.4 22:47:04 10° NNW 22:53:17 71° W 22:54:06 63° SW
Helios 1B rocket 3.9 22:55:06 30° NNW 22:55:06 30° NNW 22:56:58 10° NNW
Cosmos 2034 Rocket 4.0 22:53:27 65° SSW 22:54:27 82° W 23:00:51 10° N
ISS -1.1 22:54:29 10° WNW 22:57:06 21° N 22:57:24 20° N
CZ-2C R/B 4.4 22:56:34 20° ENE 22:57:32 21° ENE 23:01:21 10° NNE
Cosmos 2333 Rocket 2.4 22:52:05 10° NNW 22:57:39 57° WSW 22:57:40 57° WSW
Cosmos 1833 4.1 23:04:37 78° ENE 23:04:37 78° ENE 23:10:01 10° NNE
Meteor 2-2 Rocket 4.1 23:09:39 79° ENE 23:09:39 79° ENE 23:15:14 10° NNE
Cosmos 2221 4.4 23:14:13 21° NE 23:14:13 21° NE 23:16:08 10° NNE
Cosmos 2297 Rocket 4.3 23:18:41 13° E 23:18:41 13° E 23:20:18 10° ENE
Cosmos 540 Rocket 3.6 23:18:15 71° NNW 23:18:15 71° NNW 23:22:58 10° NNE
Cosmos 1634 Rocket 3.8 23:22:44 81° SSW 23:23:04 87° W 23:29:17 10° N
Cosmos 2279 Rocket 3.9 23:25:15 69° ESE 23:25:26 69° E 23:31:40 10° NNE
Cosmos 2333 4.3 23:20:39 10° NNW 23:25:59 67° W 23:25:59 67° W
NOSS 3-4 (A) 3.8 23:21:46 10° NW 23:28:40 72° WSW 23:29:36 65° SSW
NOSS 3-4 (C) 3.8 23:22:22 10° NW 23:29:18 72° WSW 23:30:16 65° SSW
Cosmos 1898 Rocket 4.5 23:25:33 10° N 23:30:21 37° ENE 23:30:35 36° ENE
Cosmos 2360 Rocket 2.6 23:25:09 10° NW 23:30:08 51° W 23:30:08 51° W
RESURS DK-1 4.5 23:29:26 10° N 23:32:11 20° NE 23:32:11 20° NE
USA 234 3.5 23:34:44 10° NE 23:41:12 65° NNW 23:44:54 27° WSW
Meteor 1-11 Rocket 4.4 23:38:11 10° N 23:43:37 44° ENE 23:43:52 43° E
Cosmos 1763 Rocket 4.3 23:43:38 41° WNW 23:44:02 42° WNW 23:49:04 10° N
Cosmos 2219 Rocket 2.5 23:41:57 10° NNW 23:46:54 58° WNW 23:46:54 58° WNW
ARGOS Delta rocket 4.3 23:42:55 10° N 23:47:34 62° NW 23:47:34 62° NW
